DAL1495 KSFO-KLAX

Flight info

Callsign DAL1495
Flight time 0h 55m
Altitude 39000
Route WESLA5 SUSEY EBAYE BURGL IRNMN2
Aircraft B772/H-SDE2E3FGHIJ5LORVWXY/LB1D1

Departure

Time 2026-04-25 03:25
Airport San Francisco International Airport (KSFO)

Arrival

Time 2026-04-25 04:20
Airport Los Angeles International Airport (KLAX)
Time Latitude Longitude Altitude Speed Heading
2026-04-25 03:09 37.62109 -122.38845 26 ft 0 kts 208°
2026-04-25 03:10 37.62137 -122.38924 25 ft 0 kts 208°
2026-04-25 03:17 37.62140 -122.38922 26 ft 3 kts 208°
2026-04-25 03:17 37.62164 -122.38906 24 ft 4 kts 208°
2026-04-25 03:17 37.62187 -122.38890 25 ft 4 kts 214°
2026-04-25 03:17 37.62209 -122.38869 24 ft 4 kts 218°
2026-04-25 03:18 37.62230 -122.38851 24 ft 4 kts 187°
2026-04-25 03:18 37.62239 -122.38852 25 ft 3 kts 116°
2026-04-25 03:18 37.62251 -122.38881 24 ft 3 kts 116°
2026-04-25 03:18 37.62253 -122.38887 24 ft 0 kts 116°
2026-04-25 03:20 37.62232 -122.38837 26 ft 16 kts 117°
2026-04-25 03:20 37.62150 -122.38641 25 ft 30 kts 118°
2026-04-25 03:21 37.62052 -122.38410 25 ft 30 kts 117°
2026-04-25 03:21 37.61956 -122.38181 26 ft 28 kts 118°
2026-04-25 03:21 37.61863 -122.37961 26 ft 28 kts 117°
2026-04-25 03:21 37.61787 -122.37732 26 ft 28 kts 111°
2026-04-25 03:22 37.61713 -122.37497 26 ft 29 kts 115°
2026-04-25 03:22 37.61609 -122.37250 26 ft 37 kts 117°
2026-04-25 03:22 37.61487 -122.36961 26 ft 36 kts 123°
2026-04-25 03:22 37.61340 -122.36724 26 ft 33 kts 117°
2026-04-25 03:23 37.61240 -122.36479 26 ft 30 kts 117°
2026-04-25 03:23 37.61141 -122.36248 26 ft 30 kts 120°
2026-04-25 03:23 37.61053 -122.36012 26 ft 30 kts 96°
2026-04-25 03:23 37.61092 -122.35915 26 ft 0 kts 36°
2026-04-25 03:24 37.61115 -122.35898 26 ft 17 kts 25°
2026-04-25 03:24 37.61241 -122.36010 26 ft 39 kts 299°
2026-04-25 03:24 37.61540 -122.36746 31 ft 151 kts 296°
2026-04-25 03:25 37.62140 -122.38153 726 ft 203 kts 299°
2026-04-25 03:25 37.62817 -122.39690 2478 ft 199 kts 296°
2026-04-25 03:25 37.63506 -122.41321 3380 ft 218 kts 297°
2026-04-25 03:25 37.64262 -122.43074 4061 ft 234 kts 298°
2026-04-25 03:26 37.65064 -122.44905 4554 ft 239 kts 299°
2026-04-25 03:26 37.65883 -122.46758 4820 ft 242 kts 299°
2026-04-25 03:26 37.66676 -122.48628 4506 ft 240 kts 291°
2026-04-25 03:26 37.66845 -122.50704 4139 ft 243 kts 257°
2026-04-25 03:27 37.66062 -122.52554 3934 ft 241 kts 226°
2026-04-25 03:27 37.64654 -122.53632 3856 ft 238 kts 197°
2026-04-25 03:27 37.62991 -122.53753 3966 ft 248 kts 169°
2026-04-25 03:27 37.61275 -122.53118 4695 ft 263 kts 160°
2026-04-25 03:28 37.59533 -122.52304 5653 ft 270 kts 160°
2026-04-25 03:28 37.57765 -122.51463 6682 ft 275 kts 160°
2026-04-25 03:28 37.55956 -122.50618 7630 ft 280 kts 160°
2026-04-25 03:28 37.54112 -122.49775 8625 ft 284 kts 160°
2026-04-25 03:29 37.52258 -122.48937 9587 ft 290 kts 160°
2026-04-25 03:29 37.50337 -122.48073 10452 ft 298 kts 160°
2026-04-25 03:29 37.48443 -122.46879 10727 ft 318 kts 139°
2026-04-25 03:29 37.46880 -122.44828 11230 ft 332 kts 130°
2026-04-25 03:30 37.45326 -122.42632 12203 ft 338 kts 131°
2026-04-25 03:30 37.43742 -122.40430 13384 ft 341 kts 131°
2026-04-25 03:30 37.42123 -122.38196 14355 ft 350 kts 131°
2026-04-25 03:30 37.40463 -122.35914 15300 ft 356 kts 131°
2026-04-25 03:31 37.38780 -122.33611 16367 ft 359 kts 132°
2026-04-25 03:31 37.37071 -122.31282 17316 ft 367 kts 132°
2026-04-25 03:31 37.35328 -122.28913 18301 ft 372 kts 133°
2026-04-25 03:31 37.33564 -122.26520 18860 ft 374 kts 133°
2026-04-25 03:32 37.31761 -122.24077 18974 ft 387 kts 133°
2026-04-25 03:32 37.29928 -122.21595 19288 ft 390 kts 133°
2026-04-25 03:32 37.28076 -122.19091 20175 ft 394 kts 134°
2026-04-25 03:32 37.26201 -122.16558 21082 ft 398 kts 135°
2026-04-25 03:33 37.24301 -122.13994 21895 ft 405 kts 135°
2026-04-25 03:33 37.22364 -122.11383 22686 ft 412 kts 135°
2026-04-25 03:33 37.20391 -122.08722 23479 ft 420 kts 136°
2026-04-25 03:33 37.18388 -122.06026 24218 ft 425 kts 136°
2026-04-25 03:34 37.16365 -122.03308 24953 ft 429 kts 136°
2026-04-25 03:34 37.14315 -122.00549 25616 ft 436 kts 137°
2026-04-25 03:34 37.12224 -121.97735 26141 ft 446 kts 137°
2026-04-25 03:34 37.10084 -121.94867 26739 ft 454 kts 137°
2026-04-25 03:35 37.07919 -121.91966 27438 ft 458 kts 138°
2026-04-25 03:35 37.05732 -121.89033 28099 ft 464 kts 138°
2026-04-25 03:35 37.03517 -121.86059 28688 ft 471 kts 138°
2026-04-25 03:35 37.01263 -121.83048 29247 ft 477 kts 139°
2026-04-25 03:36 36.98978 -121.80002 29783 ft 482 kts 140°
2026-04-25 03:36 36.96667 -121.76925 30295 ft 488 kts 139°
2026-04-25 03:36 36.94337 -121.73816 30830 ft 491 kts 139°
2026-04-25 03:36 36.92001 -121.70696 31420 ft 492 kts 139°
2026-04-25 03:37 36.89657 -121.67568 31985 ft 494 kts 139°
2026-04-25 03:37 36.87301 -121.64431 32495 ft 496 kts 139°
2026-04-25 03:37 36.84929 -121.61276 32957 ft 500 kts 139°
2026-04-25 03:37 36.82542 -121.58108 33433 ft 502 kts 139°
2026-04-25 03:38 36.80142 -121.54929 33905 ft 505 kts 139°
2026-04-25 03:38 36.77732 -121.51734 34311 ft 507 kts 139°
2026-04-25 03:38 36.75342 -121.48571 34706 ft 509 kts 139°
2026-04-25 03:38 36.72904 -121.45352 35059 ft 512 kts 139°
2026-04-25 03:39 36.70458 -121.42118 35394 ft 514 kts 139°
2026-04-25 03:39 36.68002 -121.38876 35777 ft 515 kts 140°
2026-04-25 03:39 36.65543 -121.35630 36131 ft 516 kts 140°
2026-04-25 03:39 36.63079 -121.32379 36547 ft 516 kts 140°
2026-04-25 03:40 36.60616 -121.29134 36992 ft 515 kts 140°
2026-04-25 03:40 36.58157 -121.25900 37458 ft 513 kts 140°
2026-04-25 03:40 36.55703 -121.22678 37905 ft 513 kts 140°
2026-04-25 03:40 36.53255 -121.19465 38269 ft 512 kts 141°
2026-04-25 03:41 36.50808 -121.16255 38671 ft 511 kts 141°
2026-04-25 03:41 36.48352 -121.13041 38896 ft 513 kts 141°
2026-04-25 03:41 36.43412 -121.06581 38955 ft 515 kts 141°
2026-04-25 03:42 36.38639 -120.99977 38954 ft 513 kts 137°
2026-04-25 03:42 36.34028 -120.93221 38956 ft 513 kts 137°
2026-04-25 03:43 36.29391 -120.86475 38958 ft 515 kts 137°
2026-04-25 03:43 36.24718 -120.79749 38957 ft 515 kts 138°
2026-04-25 03:44 36.20019 -120.73048 38932 ft 515 kts 138°
2026-04-25 03:44 36.15318 -120.66362 38954 ft 515 kts 138°
2026-04-25 03:45 36.10629 -120.59687 38972 ft 514 kts 138°
2026-04-25 03:45 36.05927 -120.53007 38950 ft 515 kts 138°
2026-04-25 03:46 36.01220 -120.46332 38940 ft 515 kts 138°
2026-04-25 03:46 35.96503 -120.39655 38941 ft 516 kts 138°
2026-04-25 03:47 35.91768 -120.32965 38916 ft 518 kts 138°
2026-04-25 03:47 35.87679 -120.27622 38908 ft 510 kts 146°
2026-04-25 03:48 35.82127 -120.22356 38923 ft 497 kts 157°
2026-04-25 03:48 35.76205 -120.18001 38916 ft 496 kts 158°
2026-04-25 03:49 35.70298 -120.13596 38923 ft 497 kts 157°
2026-04-25 03:49 35.64401 -120.09149 38938 ft 497 kts 157°
2026-04-25 03:50 35.58550 -120.04723 38885 ft 489 kts 157°
2026-04-25 03:50 35.52767 -120.00359 38920 ft 487 kts 158°
2026-04-25 03:51 35.46997 -119.96018 38930 ft 486 kts 158°
2026-04-25 03:51 35.41233 -119.91686 38919 ft 485 kts 158°
2026-04-25 03:52 35.35476 -119.87364 38921 ft 485 kts 158°
2026-04-25 03:52 35.29714 -119.83048 38934 ft 486 kts 158°
2026-04-25 03:53 35.24102 -119.78285 38928 ft 496 kts 151°
2026-04-25 03:53 35.18680 -119.73028 38918 ft 497 kts 151°
2026-04-25 03:54 35.15985 -119.70420 38693 ft 493 kts 152°
2026-04-25 03:54 35.13293 -119.67855 38212 ft 489 kts 152°
2026-04-25 03:54 35.10602 -119.65329 37702 ft 486 kts 153°
2026-04-25 03:54 35.07929 -119.62842 37274 ft 481 kts 153°
2026-04-25 03:55 35.05280 -119.60383 36874 ft 476 kts 153°
2026-04-25 03:55 35.02655 -119.57948 36438 ft 471 kts 153°
2026-04-25 03:55 35.00097 -119.55575 36068 ft 466 kts 153°
2026-04-25 03:55 34.97527 -119.53192 35691 ft 462 kts 153°
2026-04-25 03:56 34.94974 -119.50826 35231 ft 460 kts 153°
2026-04-25 03:56 34.92432 -119.48473 34832 ft 457 kts 153°
2026-04-25 03:56 34.89906 -119.46151 34458 ft 452 kts 154°
2026-04-25 03:56 34.87387 -119.43891 34114 ft 447 kts 154°
2026-04-25 03:57 34.84887 -119.41663 33750 ft 443 kts 154°
2026-04-25 03:57 34.82417 -119.39466 33386 ft 438 kts 153°
2026-04-25 03:57 34.79967 -119.37284 32934 ft 435 kts 153°
2026-04-25 03:57 34.77529 -119.35111 32441 ft 434 kts 153°
2026-04-25 03:58 34.75094 -119.32941 31980 ft 433 kts 152°
2026-04-25 03:58 34.72661 -119.30790 31542 ft 431 kts 153°
2026-04-25 03:58 34.70235 -119.28673 31133 ft 428 kts 153°
2026-04-25 03:58 34.67821 -119.26571 30728 ft 426 kts 152°
2026-04-25 03:59 34.65419 -119.24477 30346 ft 424 kts 153°
2026-04-25 03:59 34.63023 -119.22399 29957 ft 422 kts 152°
2026-04-25 03:59 34.60659 -119.20359 29343 ft 408 kts 153°
2026-04-25 03:59 34.58365 -119.18383 28269 ft 402 kts 153°
2026-04-25 04:00 34.56090 -119.16423 27127 ft 400 kts 152°
2026-04-25 04:00 34.53839 -119.14445 25981 ft 400 kts 151°
2026-04-25 04:00 34.51602 -119.12459 24936 ft 398 kts 151°
2026-04-25 04:00 34.49379 -119.10483 23973 ft 394 kts 150°
2026-04-25 04:01 34.47195 -119.08545 23060 ft 386 kts 150°
2026-04-25 04:01 34.45044 -119.06637 22114 ft 379 kts 150°
2026-04-25 04:01 34.42934 -119.04785 21216 ft 371 kts 150°
2026-04-25 04:01 34.40856 -119.02981 20315 ft 364 kts 150°
2026-04-25 04:02 34.38810 -119.01212 19446 ft 358 kts 150°
2026-04-25 04:02 34.36792 -118.99481 18598 ft 352 kts 150°
2026-04-25 04:02 34.34814 -118.97776 17710 ft 347 kts 150°
2026-04-25 04:02 34.32880 -118.96069 16829 ft 341 kts 148°
2026-04-25 04:03 34.31013 -118.94361 16209 ft 328 kts 148°
2026-04-25 04:03 34.29192 -118.92695 15825 ft 335 kts 149°
2026-04-25 04:03 34.27290 -118.90974 15437 ft 346 kts 148°
2026-04-25 04:03 34.25361 -118.89226 14994 ft 346 kts 148°
2026-04-25 04:04 34.23444 -118.87467 14564 ft 346 kts 148°
2026-04-25 04:04 34.21531 -118.85703 14146 ft 345 kts 147°
2026-04-25 04:04 34.19696 -118.84006 13705 ft 320 kts 148°
2026-04-25 04:04 34.17966 -118.82414 13279 ft 310 kts 148°
2026-04-25 04:05 34.16227 -118.80814 12908 ft 322 kts 146°
2026-04-25 04:05 34.14503 -118.79033 12485 ft 329 kts 142°
2026-04-25 04:05 34.12845 -118.77191 12033 ft 314 kts 141°
2026-04-25 04:05 34.11294 -118.75454 11646 ft 300 kts 141°
2026-04-25 04:06 34.09730 -118.73729 11307 ft 312 kts 141°
2026-04-25 04:06 34.08102 -118.71949 10920 ft 318 kts 141°
2026-04-25 04:06 34.06465 -118.70169 10533 ft 316 kts 141°
2026-04-25 04:06 34.04833 -118.68401 10164 ft 314 kts 141°
2026-04-25 04:07 34.03405 -118.66529 9823 ft 304 kts 122°
2026-04-25 04:07 34.02727 -118.64216 9348 ft 286 kts 98°
2026-04-25 04:07 34.02532 -118.61889 8987 ft 279 kts 97°
2026-04-25 04:07 34.02314 -118.59514 8643 ft 291 kts 97°
2026-04-25 04:08 34.02083 -118.57077 8259 ft 293 kts 97°
2026-04-25 04:08 34.01855 -118.54644 7932 ft 291 kts 97°
2026-04-25 04:08 34.01631 -118.52242 7673 ft 286 kts 97°
2026-04-25 04:08 34.01408 -118.49873 7428 ft 282 kts 97°
2026-04-25 04:09 34.01189 -118.47546 7189 ft 278 kts 97°
2026-04-25 04:09 34.01048 -118.45263 6946 ft 268 kts 86°
2026-04-25 04:09 34.01345 -118.43148 6789 ft 247 kts 77°
2026-04-25 04:09 34.01729 -118.41170 6553 ft 240 kts 77°
2026-04-25 04:10 34.02099 -118.39198 6364 ft 244 kts 78°
2026-04-25 04:10 34.02461 -118.37188 6139 ft 245 kts 78°
2026-04-25 04:10 34.02801 -118.35212 6049 ft 236 kts 82°
2026-04-25 04:10 34.03019 -118.33253 6009 ft 235 kts 84°
2026-04-25 04:11 34.03399 -118.29295 5951 ft 242 kts 84°
2026-04-25 04:11 34.03600 -118.27261 5725 ft 244 kts 85°
2026-04-25 04:11 34.03790 -118.25253 5526 ft 240 kts 84°
2026-04-25 04:12 34.03977 -118.23327 5303 ft 224 kts 85°
2026-04-25 04:12 34.04156 -118.21433 5113 ft 233 kts 85°
2026-04-25 04:12 34.04328 -118.19447 4838 ft 240 kts 85°
2026-04-25 04:12 34.04509 -118.17434 4519 ft 242 kts 84°
2026-04-25 04:13 34.04637 -118.15423 4177 ft 238 kts 97°
2026-04-25 04:13 34.04079 -118.13579 3828 ft 236 kts 128°
2026-04-25 04:13 34.02804 -118.12393 3485 ft 233 kts 160°
2026-04-25 04:13 34.01210 -118.12205 3181 ft 233 kts 192°
2026-04-25 04:14 33.99772 -118.13065 2868 ft 234 kts 222°
2026-04-25 04:14 33.98713 -118.14530 2545 ft 232 kts 232°
2026-04-25 04:14 33.97854 -118.16148 2222 ft 228 kts 248°
2026-04-25 04:14 33.97516 -118.17934 2055 ft 208 kts 261°
2026-04-25 04:15 33.97322 -118.19657 2057 ft 209 kts 261°
2026-04-25 04:15 33.97147 -118.21331 2062 ft 193 kts 261°
2026-04-25 04:15 33.96988 -118.22887 2030 ft 183 kts 262°
2026-04-25 04:15 33.96844 -118.24312 2013 ft 157 kts 261°
2026-04-25 04:16 33.96718 -118.25538 1992 ft 140 kts 261°
2026-04-25 04:16 33.96604 -118.26653 1990 ft 130 kts 260°
2026-04-25 04:16 33.96490 -118.27748 2005 ft 133 kts 261°
2026-04-25 04:16 33.96378 -118.28850 1994 ft 134 kts 260°
2026-04-25 04:17 33.96261 -118.29973 1799 ft 135 kts 261°
2026-04-25 04:17 33.96150 -118.31069 1619 ft 128 kts 260°
2026-04-25 04:17 33.96042 -118.32117 1456 ft 124 kts 260°
2026-04-25 04:17 33.95934 -118.33163 1290 ft 125 kts 261°
2026-04-25 04:18 33.95827 -118.34198 1113 ft 125 kts 260°
2026-04-25 04:18 33.95721 -118.35226 951 ft 122 kts 261°
2026-04-25 04:18 33.95613 -118.36283 783 ft 129 kts 261°
2026-04-25 04:18 33.95507 -118.37309 595 ft 120 kts 262°
2026-04-25 04:19 33.95408 -118.38307 431 ft 121 kts 262°
2026-04-25 04:19 33.95302 -118.39342 287 ft 126 kts 262°
2026-04-25 04:19 33.95191 -118.40392 126 ft 128 kts 260°
2026-04-25 04:19 33.95078 -118.41443 100 ft 119 kts 263°
2026-04-25 04:20 33.94995 -118.42277 99 ft 79 kts 263°
2026-04-25 04:20 33.94948 -118.42745 102 ft 34 kts 263°
2026-04-25 04:20 33.94925 -118.42985 98 ft 29 kts 264°
2026-04-25 04:20 33.94867 -118.43087 100 ft 0 kts 187°
2026-04-25 04:21 33.94826 -118.43090 100 ft 21 kts 181°
2026-04-25 04:21 33.94651 -118.43000 102 ft 30 kts 131°
2026-04-25 04:22 33.94625 -118.42758 100 ft 30 kts 85°
2026-04-25 04:22 33.94653 -118.42514 99 ft 30 kts 83°
2026-04-25 04:22 33.94680 -118.42264 98 ft 30 kts 83°
2026-04-25 04:22 33.94705 -118.42015 99 ft 30 kts 83°
2026-04-25 04:23 33.94670 -118.41821 100 ft 21 kts 139°
2026-04-25 04:23 33.94580 -118.41713 99 ft 11 kts 171°
2026-04-25 04:23 33.94542 -118.41668 99 ft 8 kts 102°
2026-04-25 04:23 33.94547 -118.41619 99 ft 0 kts 84°
2026-04-25 04:24 33.94548 -118.41599 97 ft 0 kts 82°